Powrót do katalogu

USA 229 DEB

AktywnyLEO
NORAD 37391·DEBRIS·🇺🇸 United States

Wystrzelony Apr 15, 2011 z Vandenberg Space Force Base

Loading…

Następne Przeloty (najbliższe 24 godziny)

TLE

NieaktualneSource: Mike McCants

Epoka: Aug 15, 2026, 20:34 UTC

1 37391U 11014B   26227.85722756 0.00000000  00000-0  00000-0 0    04
2 37391  63.4325 128.8406 0376377 357.7690   2.2310 13.41003479    07

Śledź USA 229 DEB w czasie rzeczywistym z AllMySat

Download on the App Store